Regional Weather Roundup
Issued by NWS

Home | Current Version | Previous Version | Graphics & Text | Print | Product List | Glossary On
Versions: 1 2 3 4 5 6 7 8 9 10 11 12 13 14 15 16 17 18 19 20 21 22 23 24 25 26 27 28 29 30 31 32 33 34 35 36 37 38 39 40 41 42 43 44 45 46 47 48 49 50
000
ASUS43 KMPX 160701
RWRMN
WEATHER ROUNDUP FOR MINNESOTA
NATIONAL WEATHER SERVICE TWIN CITIES/CHANHASSEN MN
200 AM CDT WED APR 16 2014


NOTE: "FAIR" INDICATES FEW OR NO CLOUDS BELOW 12,000 FEET WITH NO
SIGNIFICANT WEATHER AND/OR OBSTRUCTIONS TO VISIBILITY. N/A MEANS
CURRENT SKY AND/OR WEATHER CONDITIONS ARE NOT AVAILABLE.

MNZ060>063-068>070-160800-
   Twin Cities Metro

CITY           SKY/WX    TMP DP  RH WIND       PRES   REMARKS
TWIN CITIES    CLOUDY    34  16  47 E14       30.05S WCI  25
ST PAUL        CLOUDY    34  16  47 E8        30.07S WCI  27
CRYSTAL        CLOUDY    35  15  44 SE8       30.04S WCI  29
BLAINE         CLOUDY    36  18  48 E8        30.05F
EDEN PRAIRIE   CLOUDY    35  16  45 E13       30.02F WCI  26
LAKEVILLE      MOCLDY    30  21  69 E9        30.03F WCI  22
SOUTH ST PAUL  CLOUDY    37  17  45 E7        30.06F
LAKE ELMO      CLOUDY    34  18  51 E8        30.07S WCI  27
$$
MNZ001>005-007-008-013>017-022>024-027-028-160800-
   Northwest Minnesota

CITY           SKY/WX    TMP DP  RH WIND       PRES   REMARKS
BEMIDJI        CLOUDY    26   4  39 E9        30.02F WCI  16
HALLOCK        CLOUDY    27  12  54 E10       30.06S WCI  17
ROSEAU         PTCLDY    23  12  63 E9        30.08S WCI  13
WARROAD        PTCLDY    18   9  68 E6        30.10R WCI   9
THIEF RVR FALL CLOUDY    25   9  50 E13       30.04R WCI  13
CROOKSTON      CLOUDY    28  10  47 E10       30.02S WCI  19
FOSSTON        CLOUDY    27   9  46 E9        30.01S WCI  17
DETROIT LAKES  MIX PCPN  30  14  51 SE17G25   29.97F WCI  18
MOORHEAD       CLOUDY    30  21  69 E15G23    29.97F WCI  19
PARK RAPIDS    CLOUDY    28   6  39 E8        30.00S WCI  20
$$
MNZ006-009>011-018-025>026-160800-
   North Central Minnesota

CITY           SKY/WX    TMP DP  RH WIND       PRES   REMARKS
BAUDETTE       PTCLDY    19   6  57 E7        30.10R WCI  10
FLAG ISLAND    PTCLDY    12   9  85 CALM      30.11R
INTL FALLS     CLEAR     16  10  77 NE3       30.11R
WASKISH        PTCLDY    19   9  63 E7        30.07S WCI  10
BIG FORK       PTCLDY    21   7  53 E6        30.08S WCI  14
LONGVILLE      CLOUDY    27   9  46 E3        30.04S
GRAND RAPIDS   MOCLDY    25   1  36 E3        30.06R
CRANE LAKE     CLEAR      7   1  78 CALM      30.14S
ORR            PTCLDY    12   7  79 CALM      30.08R
COOK           PTCLDY    18   7  62 CALM      30.10S
$$
MNZ012-019>021-037-160800-
   Northeast Minnesota

CITY           SKY/WX    TMP DP  RH WIND       PRES   REMARKS
DULUTH         PTCLDY    23   8  52 E5        30.08S WCI  17
ELY            CLEAR      9   7  92 CALM      30.10S
HIBBING        PTCLDY    22   7  52 CALM      30.08S
EVELETH        PTCLDY    21   9  58 NE6       30.10S WCI  14
DULUTH HARBOR  PTCLDY    27   7  43 CALM      30.14S
TWO HARBORS    PTCLDY    18  10  73 N5        30.10R WCI  11
SILVER BAY     PTCLDY    12  10  92 CALM      30.10S
GRAND MARAIS     N/A     20   5  52 CALM      30.17R
G MARAIS ARPRT CLEAR      3  -2  78 N5        30.09S WCI  -6
$$
MNZ029>031-032-039>041-046>048-054>057-064-160800-
   West Central Minnesota

CITY           SKY/WX    TMP DP  RH WIND       PRES   REMARKS
FERGUS FALLS   LGT SNOW  27  21  80 E14G20    29.93S VSB 1   WCI  15
WHEATON        CLOUDY    34  18  51 E20       29.91S WCI  22
MORRIS         CLOUDY    30  21  69 E29G36    29.88F WCI  15
ALEXANDRIA     LGT SNOW  27  23  85 E20G28    29.95F FOG     WCI  13
ELBOW LAKE     CLOUDY    28  24  84 E20G29    29.92F WCI  15
WADENA         CLOUDY    27  18  69 SE16      29.99S WCI  14
GLENWOOD       LGT SNOW  27  25  93 E21G28    29.94F WCI  13
APPLETON       CLOUDY    36  18  48 E22G29    29.86F
BENSON         CLOUDY    34  18  51 SE16G25   29.88F WCI  23
ORTONVILLE     CLOUDY    34  16  47 E17G28    29.85S WCI  23
MADISON        CLOUDY    37  21  52 SE28G33   29.84F
WILLMAR        FAIR      34  16  47 E21G30    29.93F WCI  22
$$
MNZ033>034-036-042>043-049>051-058-059-160800-
   Central Minnesota

CITY           SKY/WX    TMP DP  RH WIND       PRES   REMARKS
ST CLOUD       CLOUDY    31  19  61 E9        30.03S WCI  23
SAUK CENTRE    LGT SNOW  29  18  61 E15G23    29.98F WCI  18
PAYNESVILLE    LGT SNOW  29  21  71 E13       29.98F WCI  19
AITKIN         CLOUDY    28   7  40 E3        30.04S
PINE RIVER     CLOUDY    27  10  50 E6        30.06S WCI  20
BRAINERD       CLOUDY    33   2  26 E5        30.04S WCI  29
STAPLES        CLOUDY    27  16  63 E6        30.01F WCI  20
LONG PRAIRIE   CLOUDY    27  21  80 E14G20    30.00S WCI  15
LITTLE FALLS   LGT SNOW  30  19  64 E8        30.03F WCI  23
LITCHFIELD     MIX PCPN  34  21  60 E18       29.97F WCI  23
BUFFALO        CLOUDY    32  20  60 E15       30.03F WCI  22
MAPLE LAKE     CLOUDY    33  18  53 SE15      30.02F WCI  23
$$
MNZ037-044-045-052-053-160800-
   East Central Minnesota

CITY           SKY/WX    TMP DP  RH WIND       PRES   REMARKS
PRINCETON      LGT SNOW  28  25  86 E6        30.06S WCI  22
MORA           CLOUDY    30  10  43 E8        30.08S WCI  23
CAMBRIDGE      LGT SNOW  32  21  64 SE5       30.06S WCI  27
RUSH CITY      CLOUDY    30  10  44 CALM      30.08S
MOOSE LAKE     CLOUDY    28   5  37 E3        30.06S
HINCKLEY       CLOUDY    30   9  40 E6        30.08S WCI  24
CLOQUET        MOCLDY    25   7  46 CALM      30.08S
MCGREGOR       CLOUDY    28  10  47 E6        30.07S WCI  22
$$
MNZ071>073-080-081-089-090-097-098-160800-
   Southwest Minnesota

CITY           SKY/WX    TMP DP  RH WIND       PRES   REMARKS
MONTEVIDEO     CLOUDY    34  19  55 SE23G30   29.88F WCI  22
GRANITE FALLS  CLOUDY    33  19  56 E20G30    29.87F WCI  21
CANBY          MOCLDY    33  22  64 E18G24    29.84S WCI  22
MARSHALL       MOCLDY    34  19  55 SE23G30   29.81F WCI  22
REDWOOD FALLS  CLOUDY    34  19  54 E20G28    29.86F WCI  23
OLIVIA         CLOUDY    34  21  60 E20       29.90F WCI  22
PIPESTONE      CLOUDY    34  25  69 SE22      29.72F WCI  22
WINDOM         MOCLDY    34  21  60 E24G31    29.82F WCI  21
WORTHINGTON    CLOUDY    34  19  55 SE23G29   29.79F WCI  22
JACKSON        CLOUDY    32  23  69 SE23G29   29.84F WCI  19
TRACY          CLOUDY    34  22  62 SE18G28   29.81F WCI  23
SLAYTON        CLOUDY    32  23  68 E18G30    29.80F WCI  21
$$
MNZ065>067-074>077-082>085-091>093-160800-
   South Central Minnesota

CITY           SKY/WX    TMP DP  RH WIND       PRES   REMARKS
MANKATO        CLOUDY    34  18  51 SE17G23   29.98F WCI  23
NEW ULM        MOCLDY    34  21  60 E17       29.92F WCI  23
ST JAMES       MOCLDY    34  21  60 E20       29.91F WCI  22
FAIRMONT       CLOUDY    34  19  55 SE23      29.91F WCI  22
GLENCOE        CLOUDY    34  16  48 E15       29.97F WCI  24
FARIBAULT      CLOUDY    36  16  44 E13       30.01F
OWATONNA       MOCLDY    34  19  55 E15       30.01S WCI  24
WASECA         CLOUDY    34  23  64 E17       30.00F WCI  23
ALBERT LEA     MOCLDY    34  19  55 SE16      29.98F WCI  23
$$
MNZ078>079-086>088-094>096-160800-
   Southeast Minnesota

CITY           SKY/WX    TMP DP  RH WIND       PRES   REMARKS
ROCHESTER      CLOUDY    31  19  61 SE15      30.03F WCI  20
RED WING       CLOUDY    36  16  44 E8        30.06F
STANTON        CLOUDY    34  18  50 E7        30.03S WCI  28
DODGE CENTER   MOCLDY    34  21  60 SE15      30.02S WCI  24
WINONA         PTCLDY    34  23  64 SE8       30.10F WCI  27
AUSTIN         CLOUDY    30  21  69 SE14G21   30.01S WCI  20
PRESTON        CLOUDY    32  19  58 SE9       30.06F WCI  24
$$
ABBREVIATIONS USED IN REMARKS
   TC - TEMPERATURES IN CELSIUS
  WCI - WIND CHILL INDEX
   HX - HEAT INDEX
  VSB - VISIBILITY
$$


USA.gov is the U.S. government's official web portal to all federal, state and local government web resources and services.